Virtual Norwegian is not affiliated with Norwegian Air Shuttle in any way.
If you are looking for the real "Norwegian", or you wish to book Norwegian flights, please visit Norwegian.com


We use cookies to ensure you get the best experience on our website.   ACCEPT

LEAL - ALC - Alicante (Elche)

General Info Alternate Airport
ICAO: LEAL Elevation: 142 ft ICAO: LEVC
IATA: ALC Country: Spain IATA: VLC
City: Alicante Charts: Log in to view charts City: Valencia
Name: Elche Hub: Yes Name Valencia
General Info
ICAO: LEAL
IATA: ALC
City: Alicante
Name: Elche
Elevation: 142 ft
Country: Spain
Charts: Log in to view charts
Hub: Yes
 
Alternate Airport
ICAO: LEVC
IATA: VLC
City: Valencia
Name: Valencia

Weather
160700Z 04005KT 9999 BKN010 17/14 Q1018 NOSIG
Weather
160700Z 04005KT 9999 BKN010 17/14 Q1018 NOSIG

Runway Info
10
Length ILS/LOC Course
3000 m 110.30 101
28
Length ILS/LOC Heading
3000 m N/A 280

NOTAMs
NOTAMs currently unavailable.
NOTAMs
NOTAMs currently unavailable

Route map
Airport
Airport (hub)